Location: ???? ?????
(37.9132°N, 22.9869°E)
Time: 18:58:55
(UTC+00:00)

BlueWalker 3 - Pass Details

Date: 19 October 2024
Orbit: 470 x 481 km, 53.2° (Epoch: 12 November)

Event Time Altitude Azimuth Distance (km) Brightness Sun altitude
Exits shadow 03:26:18 - 336° (NNW) 1,796 4.5 -15.4°
Reaches altitude 10° 03:26:52 10° 342° (NNW) 1,631 4.3 -15.3°
Maximum altitude 03:29:27 18° 27° (NNE) 1,221 4.2 -14.8°
Drops below altitude 10° 03:32:02 10° 72° (ENE) 1,629 5.7 -14.3°
Sets 03:34:42 0° 92° (E) 2,506 7.5 -13.7°
